Temperature
19 19 19 19 18 17 17 17 16 16 16 16 16 15 15 15 15 15 15 14 14 14 14 14 14 14 15 15 15 15 16 16 16 16 15 15 15 15 15 15 16 15 15
20 19 19 19 18 17 17 17 16 16 16 16 16 15 15 15 15 15 15 14 14 14 14 14 14 14 14 14 14 15 15 15 15 15 15 15 15 15 15 15 15 15 16
20 19 19 19 18 18 17 17 16 16 16 16 16 15 15 15 15 15 14 14 14 14 14 13 13 14 14 14 14 14 14 15 15 15 15 15 15 15 15 15 15 14 15
19 19 19 19 18 18 17 17 16 16 16 16 16 15 15 15 15 14 14 14 14 14 14 13 13 13 13 14 13 14 14 14 14 14 14 14 15 14 14 15 14 14 14
20 19 19 18 18 18 17 17 16 16 16 16 16 15 15 15 15 15 14 14 14 14 14 13 13 13 13 13 13 13 14 14 14 14 14 14 14 14 14 14 14 14 14
20 19 19 18 18 17 17 16 16 16 16 16 16 15 15 15 15 15 14 14 14 14 14 14 14 14 13 13 13 13 13 13 13 14 14 14 14 14 15 14 14 13 13
19 19 18 18 17 17 16 16 16 16 16 16 15 15 15 15 15 15 14 14 14 14 14 14 14 14 14 14 13 13 13 13 13 13 14 14 14 14 14 14 13 13 14
18 18 17 17 16 16 16 16 15 15 15 15 15 15 15 15 15 15 15 14 14 14 14 14 14 14 14 14 13 13 13 13 14 13 14 14 14 14 13 14 14 13 13
17 16 16 16 15 15 15 15 15 15 15 15 15 15 15 15 15 15 15 14 14 14 14 14 14 14 14 13 13 13 13 13 13 13 14 14 14 14 14 14 13 13 12
14 14 14 14 14 14 14 14 14 14 14 14 14 14 14 14 15 15 15 14 14 14 14 14 14 14 14 14 13 13 13 13 13 13 13 14 14 14 14 14 14 13 13
13 13 13 13 13 13 13 13 13 13 14 14 14 14 14 14 14 14 14 14 14 14 14 14 14 14 14 14 13 13 13 13 13 13 13 13 14 14 14 14 13 13 13
12 12 12 12 12 12 12 12 12 13 13 13 13 14 14 14 14 14 14 14 14 14 14 14 14 14 13 13 13 13 13 13 13 13 13 13 13 14 14 13 13 13 12
13 12 12 12 12 12 12 12 12 12 12 12 12 13 13 13 13 13 13 13 13 13 13 13 13 13 13 13 13 13 13 13 13 13 13 13 13 13 13 13 13 12 12
13 13 12 12 12 12 12 11 11 11 12 12 12 12 12 12 13 13 13 13 13 13 13 13 13 13 13 12 13 13 13 13 12 13 13 13 13 13 13 12 12 12 12
13 13 12 12 12 11 11 11 11 11 11 12 12 12 12 12 12 12 12 12 12 12 12 12 12 12 12 12 12 12 12 12 12 12 12 12 12 12 12 12 12 11 11
13 12 12 12 11 11 11 11 11 11 11 11 11 12 12 12 12 12 12 12 12 12 12 12 12 12 12 12 12 12 12 12 12 12 12 11 11 11 11 11 11 11 11
13 12 12 12 11 11 11 11 11 11 11 11 11 11 11 11 12 12 12 12 12 12 12 12 11 11 11 11 11 11 11 11 11 11 11 11 11 11 11 11 11 10 10
12 12 12 12 11 11 11 11 11 11 10 11 11 11 11 11 11 11 11 11 11 11 11 11 11 11 11 11 11 10 10 10 10 10 10 10 10 10 10 10 10 10 10
12 12 12 12 11 11 11 11 11 10 10 10 10 10 10 10 11 11 10 10 10 10 10 10 10 10 10 10 10 10 10 10 10 10 10 10 10 10 10 10 10 10 10
12 12 12 11 11 11 11 11 11 10 10 10 10 10 10 10 10 10 10 10 10 9 9 9 9 9 9 9 9 9 9 9 9 9 9 9 9 9 9 9 9 9 9
12 12 12 11 11 11 11 11 11 11 10 10 10 10 9 9 9 9 9 9 9 9 9 9 9 9 9 9 9 9 9 9 9 9 9 9 9 9 9 9 9 9 9
12 12 12 11 11 11 11 11 11 11 10 10 10 10 10 9 9 9 9 9 9 9 9 9 9 9 9 9 9 9 9 9 9 9 9 9 9 8 8 8 8 8 8
12 12 12 11 11 11 11 11 11 11 11 10 10 10 10 10 10 10 9 9 9 9 9 9 9 9 9 9 9 9 9 9 9 8 8 8 8 8 8 8 8 8 8
12 12 12 11 11 11 11 11 11 11 11 10 10 10 10 10 10 9 9 9 9 9 9 9 9 9 9 9 9 9 9 9 9 8 8 8 8 7 7 7 7 7 7
12 12 11 11 11 11 11 11 11 11 11 10 10 10 10 10 10 9 9 9 9 9 9 9 9 9 9 9 9 9 9 9 9 8 8 7 7 7 7 7 7 7 7
12 11 11 11 11 11 11 11 11 11 11 10 10 10 10 10 10 9 9 9 9 9 9 9 9 9 8 8 8 9 9 9 8 8 7 7 7 7 7 6 6 6 6
Wind_Speed
8 7 7 5 4 4 3 3 3 3 4 4 6 6 7 7 7 7 6 7 7 6 6 6 5 4 2 1 1 2 2 2 3 4 4 5 7 7 6 9 13 12 10
7 8 9 8 7 5 5 5 4 4 5 4 5 5 7 7 7 7 7 7 7 7 6 6 6 5 4 2 1 2 2 3 3 4 4 5 7 8 8 7 9 11 12
7 6 7 7 7 6 5 5 5 5 6 5 5 5 5 6 6 6 6 6 6 7 7 6 6 6 5 3 3 3 3 4 3 3 4 3 4 6 8 6 5 4 11
9 7 6 7 7 6 5 5 5 6 6 6 6 7 6 6 7 7 6 6 6 6 6 6 6 6 6 5 4 4 3 3 4 3 3 3 3 4 7 6 5 4 5
9 7 7 6 6 6 5 5 6 5 4 5 6 6 6 6 7 7 7 7 7 6 6 6 7 8 9 7 5 4 4 3 3 4 4 3 4 4 5 6 6 5 5
6 6 6 4 5 5 4 4 5 5 3 2 4 5 6 5 9 11 7 6 6 7 6 6 7 8 10 11 10 9 8 6 5 4 4 5 7 6 5 5 6 5 5
3 4 5 3 4 4 3 4 3 4 5 5 4 5 7 8 12 12 9 5 4 5 7 6 6 7 9 7 10 13 12 13 12 7 6 7 7 7 8 8 7 7 6
7 6 5 3 2 2 3 4 4 4 4 5 5 5 5 9 13 13 11 6 4 5 6 7 7 7 8 8 8 8 9 9 11 10 9 9 7 7 9 11 9 7 4
10 9 7 6 4 2 2 4 4 4 4 5 5 5 5 8 13 13 11 5 5 7 7 6 6 4 6 8 6 6 6 7 10 12 10 7 6 6 7 6 7 5 4
8 8 7 6 5 4 4 3 4 3 4 4 5 5 6 7 12 14 12 5 5 5 3 3 5 5 6 7 5 5 6 6 5 5 6 6 6 6 8 7 8 6 5
6 6 6 6 5 4 4 3 3 2 3 4 4 4 4 5 11 13 11 4 3 1 0 0 2 6 5 4 4 4 5 4 4 5 6 6 6 5 5 4 4 5 5
4 4 5 5 5 5 4 4 4 3 3 3 3 3 2 3 8 9 10 6 1 1 1 1 3 6 4 3 2 4 4 4 2 3 3 4 4 4 4 5 3 2 3
3 4 4 5 5 6 5 5 4 3 3 3 2 2 1 2 5 7 7 5 2 0 3 4 5 4 3 2 3 3 3 2 2 2 3 3 3 4 3 3 2 2 1
2 3 4 6 6 6 6 6 5 5 5 4 3 1 1 1 4 4 4 4 4 3 3 3 4 3 1 1 2 3 3 1 0 1 1 1 2 3 3 3 3 2 1
4 5 6 5 5 5 6 6 5 6 5 4 4 3 3 2 3 4 2 2 2 2 3 3 2 2 3 3 2 2 1 1 0 1 0 1 2 3 3 3 3 3 4
5 5 4 3 3 2 3 5 10 9 11 12 11 8 5 6 6 7 8 7 7 5 2 1 2 2 2 2 2 1 0 0 0 0 0 0 1 2 3 3 3 4 5
4 4 3 3 2 1 1 2 3 5 9 13 13 13 10 8 8 7 7 7 7 5 2 1 0 0 1 1 2 1 0 0 1 0 1 2 2 2 3 3 4 4 5
3 3 1 1 1 1 1 2 2 3 3 4 7 10 10 10 9 8 5 3 4 3 3 3 3 3 3 3 2 2 1 1 0 1 2 2 2 3 3 4 4 5 6
3 3 3 2 1 1 1 2 3 4 4 3 3 4 5 5 5 5 4 3 3 4 4 4 4 4 3 3 3 3 2 2 1 1 1 2 2 2 3 3 4 5 6
4 4 3 3 2 1 1 2 3 4 4 3 4 3 2 2 3 4 4 4 4 4 3 4 4 4 4 3 3 3 3 3 3 2 2 2 2 2 3 4 3 3 4
3 5 1 3 1 2 2 3 4 4 4 4 4 4 5 3 3 4 4 4 4 4 4 4 4 4 4 4 4 4 4 4 4 4 4 3 3 3 3 3 3 3 3
1 4 3 1 2 3 3 3 4 5 5 5 3 2 3 3 3 3 4 4 4 4 4 4 4 4 4 4 4 4 4 5 5 5 4 4 4 3 4 3 3 3 3
1 2 3 3 2 3 1 3 4 5 4 4 3 3 2 2 3 3 4 4 4 5 5 5 5 5 4 5 5 5 5 5 5 6 6 5 4 4 3 4 4 4 4
1 2 3 3 2 2 2 3 4 4 5 4 3 3 3 3 4 5 5 4 5 5 5 4 5 7 8 6 7 8 7 8 8 6 7 6 6 5 4 3 4 4 4
1 2 3 2 2 2 3 3 4 4 4 4 3 4 4 4 5 5 5 5 5 6 6 5 6 7 9 10 9 9 11 11 9 8 6 5 5 5 4 4 4 4 4
2 2 3 2 2 2 2 3 4 5 4 4 5 5 5 5 5 5 5 5 5 5 5 5 8 10 12 10 11 12 12 12 12 10 6 4 4 4 4 3 4 4 4
Wind_Direction
181 169 153 187 175 167 176 175 168 167 162 179 177 179 173 175 179 179 184 185 192 192 192 189 190 168 172 219 265 295 287 218 210 225 191 166 160 157 153 154 159 161 156
186 176 168 175 162 177 191 180 180 174 173 196 180 173 170 172 174 178 185 185 189 193 193 190 189 179 176 193 217 274 282 276 237 231 199 180 177 167 161 180 179 183 162
182 190 163 163 169 183 201 173 180 189 185 180 173 170 170 163 171 179 179 180 187 188 184 180 180 173 176 182 203 239 262 276 272 244 211 188 190 170 162 186 193 171 164
174 181 174 174 174 174 193 179 195 209 197 182 182 175 170 169 175 178 173 173 174 174 175 178 180 180 185 185 201 219 242 270 276 265 227 181 192 180 165 176 194 191 170
162 167 175 185 168 173 199 190 197 218 214 191 179 177 165 171 181 171 172 175 177 179 180 186 190 191 192 190 197 203 214 233 257 253 229 190 187 184 195 179 185 184 205
152 158 158 171 161 176 203 216 199 195 217 233 181 173 165 175 154 160 165 168 177 181 189 196 200 201 206 208 215 217 213 217 228 237 232 213 207 200 198 189 177 173 210
87 117 129 147 154 163 199 238 226 194 206 233 224 183 172 158 155 159 167 168 181 190 194 195 207 206 201 207 221 229 230 229 225 222 234 234 221 204 197 205 198 192 203
41 42 55 50 56 154 214 242 237 222 211 224 238 211 172 165 169 170 174 190 207 215 211 205 205 206 201 205 213 218 223 230 229 228 230 231 230 218 205 205 203 199 200
29 23 25 19 8 341 277 267 258 246 233 222 229 219 189 170 177 178 175 197 222 231 228 212 198 197 190 198 210 225 233 239 230 220 219 214 207 218 202 181 180 175 187
25 19 18 13 359 345 331 306 289 274 258 242 233 217 204 182 182 184 185 203 227 239 236 194 180 176 156 173 209 236 244 244 225 200 198 188 192 195 192 184 178 179 182
25 19 13 7 350 3 358 342 326 306 293 276 261 240 219 184 177 186 188 211 227 245 279 145 144 162 163 179 213 246 258 263 239 205 193 195 196 185 189 199 178 176 183
29 19 13 9 10 26 20 4 349 337 312 292 285 278 240 164 163 183 190 207 329 346 357 66 124 144 158 182 225 241 264 275 249 199 187 193 194 190 186 188 180 168 164
41 29 26 27 37 33 20 13 3 355 340 323 302 284 277 133 135 160 182 193 194 13 67 86 124 150 162 200 222 234 253 256 227 197 207 209 197 183 160 152 151 102 85
55 53 57 46 42 44 35 22 18 17 9 358 357 355 333 136 139 157 175 177 177 186 164 129 133 127 272 286 171 218 240 251 181 205 224 181 140 138 150 152 159 158 182
37 61 74 69 58 57 62 40 22 41 36 21 5 10 28 66 63 75 101 129 150 167 147 147 174 183 210 216 199 197 201 146 81 10 64 149 157 168 169 160 161 167 189
44 44 53 79 74 73 104 94 54 54 52 52 45 44 56 65 75 78 78 77 72 68 95 191 221 223 214 207 185 179 166 184 204 327 321 261 207 201 186 171 175 191 211
52 55 38 62 84 61 87 127 122 80 64 55 49 50 55 56 65 77 82 80 69 60 56 13 16 55 63 79 86 90 128 164 113 70 287 276 259 240 216 203 201 211 223
71 100 33 29 59 51 44 63 96 109 91 71 56 51 54 59 65 71 71 68 63 47 36 39 43 48 51 51 52 36 18 10 352 261 266 267 263 260 254 236 220 221 229
46 55 44 29 12 54 53 73 88 93 97 97 99 72 54 56 62 47 18 24 64 60 50 49 45 39 34 32 33 26 8 355 333 315 299 289 283 276 271 263 252 242 236
98 81 22 339 339 55 48 81 94 99 93 82 77 63 21 24 53 48 39 43 56 59 50 47 43 40 36 30 25 14 360 353 347 341 329 321 306 296 290 286 277 266 251
145 134 167 282 339 61 61 84 99 103 99 91 81 57 14 34 66 66 55 45 49 53 53 47 40 37 37 28 20 10 7 5 7 5 359 349 335 314 299 290 286 280 273
154 152 174 133 77 68 63 91 103 106 108 107 115 105 25 36 69 72 62 51 49 49 50 48 47 43 37 28 24 20 15 11 6 357 344 333 324 311 299 291 287 284 276
248 126 117 104 101 107 102 109 117 118 119 118 116 114 94 76 77 78 75 63 53 50 47 48 48 39 32 31 31 34 28 12 352 338 329 320 318 312 308 300 293 288 278
206 122 115 115 115 122 116 119 123 124 128 129 124 120 111 97 87 77 70 67 66 58 52 52 47 39 37 37 37 38 26 359 340 328 327 321 315 308 304 300 296 294 291
170 137 121 122 134 127 125 128 130 127 128 126 116 104 96 92 88 82 74 69 72 68 60 52 47 40 35 39 32 18 360 352 346 333 316 308 312 314 316 316 317 315 307
165 142 124 122 122 121 122 122 121 118 112 104 97 93 89 85 85 83 78 74 73 68 61 51 53 53 36 25 15 7 2 356 350 345 328 305 315 328 337 330 324 319 313
Height
1480 1482 1483 1484 1486 1487 1488 1489 1490 1491 1492 1493 1494 1494 1495 1496 1498 1499 1500 1501 1503 1505 1507 1509 1512 1515 1517 1521 1524 1526 1529 1533 1534 1537 1538 1539 1540 1541 1542 1542 1543 1543 1543
1479 1480 1481 1483 1484 1485 1486 1487 1488 1489 1490 1491 1492 1493 1493 1494 1495 1496 1497 1498 1500 1501 1503 1505 1507 1510 1513 1516 1519 1522 1525 1528 1530 1532 1534 1535 1536 1537 1539 1540 1540 1541 1541
1475 1478 1480 1481 1482 1483 1484 1485 1486 1487 1488 1489 1490 1491 1492 1492 1493 1494 1495 1496 1497 1498 1500 1501 1503 1506 1508 1512 1515 1518 1520 1523 1525 1528 1529 1531 1533 1534 1535 1536 1537 1537 1537
1471 1475 1477 1479 1480 1481 1482 1483 1484 1485 1487 1487 1488 1489 1490 1490 1491 1492 1492 1494 1495 1496 1497 1498 1500 1502 1505 1507 1510 1513 1516 1518 1521 1523 1525 1526 1529 1530 1531 1532 1533 1534 1534
1470 1472 1474 1477 1478 1479 1480 1481 1482 1484 1485 1486 1486 1487 1488 1488 1489 1490 1491 1492 1493 1494 1495 1497 1498 1500 1502 1504 1506 1509 1511 1513 1516 1518 1520 1522 1523 1526 1527 1528 1529 1530 1531
1468 1470 1473 1475 1476 1476 1478 1479 1480 1481 1481 1483 1484 1485 1485 1486 1487 1488 1489 1490 1491 1493 1494 1495 1496 1497 1499 1501 1503 1505 1507 1509 1511 1513 1515 1517 1518 1520 1523 1524 1525 1526 1527
1468 1469 1470 1472 1474 1473 1475 1476 1477 1478 1478 1479 1481 1482 1483 1484 1485 1487 1488 1489 1490 1491 1492 1493 1494 1495 1497 1498 1499 1501 1503 1505 1507 1508 1510 1512 1514 1515 1517 1519 1520 1521 1522
1467 1468 1468 1469 1470 1470 1471 1472 1473 1474 1474 1475 1478 1479 1480 1481 1482 1484 1486 1487 1488 1490 1491 1491 1492 1493 1494 1495 1496 1497 1498 1500 1502 1504 1505 1507 1509 1511 1512 1513 1515 1517 1520
1466 1466 1466 1467 1467 1468 1468 1469 1470 1470 1471 1472 1474 1476 1477 1478 1480 1482 1483 1485 1486 1487 1489 1490 1490 1491 1491 1492 1493 1494 1495 1496 1498 1499 1501 1502 1504 1506 1507 1509 1510 1512 1514
1467 1466 1465 1465 1464 1465 1465 1465 1466 1467 1468 1469 1471 1472 1473 1475 1476 1478 1480 1482 1483 1485 1486 1487 1488 1488 1489 1489 1490 1490 1491 1492 1493 1495 1496 1497 1499 1500 1502 1504 1505 1507 1509
1468 1467 1465 1464 1463 1462 1462 1462 1462 1463 1464 1465 1467 1468 1470 1471 1473 1475 1477 1479 1481 1482 1483 1484 1484 1485 1486 1486 1486 1486 1487 1488 1489 1490 1492 1493 1494 1496 1497 1499 1500 1502 1504
1469 1468 1466 1465 1463 1462 1461 1460 1460 1460 1461 1462 1463 1465 1467 1468 1469 1471 1473 1475 1477 1479 1480 1481 1481 1482 1482 1482 1482 1483 1484 1484 1486 1487 1488 1490 1491 1492 1493 1495 1496 1498 1500
1470 1469 1467 1465 1464 1462 1461 1460 1459 1459 1460 1460 1461 1463 1464 1466 1467 1468 1470 1472 1474 1476 1477 1478 1479 1479 1479 1479 1480 1480 1481 1482 1483 1484 1485 1487 1488 1489 1490 1491 1493 1494 1495
1471 1470 1468 1466 1464 1463 1461 1460 1459 1459 1459 1460 1460 1461 1462 1464 1465 1466 1468 1470 1472 1473 1474 1475 1476 1477 1477 1477 1478 1479 1479 1480 1481 1482 1483 1485 1486 1486 1487 1488 1489 1490 1491
1472 1470 1468 1467 1465 1464 1462 1461 1461 1460 1460 1460 1460 1461 1461 1462 1464 1465 1466 1468 1470 1471 1472 1473 1474 1475 1475 1476 1477 1477 1478 1479 1480 1481 1481 1482 1483 1483 1484 1485 1485 1486 1487
1472 1471 1470 1468 1467 1466 1464 1463 1463 1462 1461 1461 1461 1461 1461 1462 1463 1464 1465 1467 1469 1470 1471 1472 1473 1474 1475 1476 1476 1477 1477 1478 1478 1479 1480 1480 1481 1481 1481 1481 1482 1482 1482
1473 1471 1470 1469 1468 1467 1467 1466 1465 1464 1463 1462 1462 1462 1462 1463 1463 1464 1465 1467 1468 1469 1470 1471 1472 1473 1474 1475 1475 1476 1476 1476 1477 1477 1477 1478 1478 1478 1478 1478 1478 1478 1479
1473 1472 1471 1470 1470 1469 1468 1467 1467 1466 1465 1464 1464 1464 1464 1464 1464 1465 1466 1467 1468 1469 1470 1471 1472 1473 1473 1474 1474 1475 1475 1475 1475 1475 1475 1475 1475 1475 1475 1475 1475 1475 1474
1472 1472 1471 1470 1470 1470 1469 1469 1468 1467 1466 1466 1466 1465 1465 1465 1466 1466 1467 1468 1469 1470 1470 1471 1472 1472 1473 1473 1474 1474 1474 1474 1474 1474 1473 1473 1473 1472 1472 1471 1471 1470 1470
1471 1471 1470 1470 1470 1470 1470 1470 1469 1468 1468 1468 1467 1467 1467 1467 1468 1468 1468 1469 1470 1471 1471 1472 1472 1472 1473 1473 1473 1473 1473 1473 1472 1472 1471 1471 1470 1469 1468 1468 1467 1466 1465
1471 1470 1470 1470 1471 1471 1470 1470 1470 1469 1469 1469 1469 1469 1469 1469 1470 1470 1470 1471 1472 1472 1472 1472 1473 1473 1473 1473 1472 1472 1471 1471 1470 1469 1469 1468 1467 1466 1465 1464 1463 1462 1461
1471 1471 1471 1471 1471 1471 1471 1471 1471 1471 1471 1471 1470 1471 1471 1471 1472 1472 1472 1473 1473 1473 1473 1473 1473 1473 1472 1472 1471 1471 1470 1469 1467 1466 1465 1464 1463 1462 1461 1460 1459 1457 1456
1471 1471 1471 1471 1471 1471 1472 1472 1472 1472 1472 1473 1473 1473 1473 1474 1474 1474 1474 1474 1474 1474 1474 1473 1473 1472 1472 1471 1470 1469 1467 1466 1464 1463 1461 1460 1459 1458 1457 1456 1455 1453 1452
1470 1470 1471 1471 1471 1472 1472 1473 1473 1474 1474 1474 1475 1475 1476 1476 1476 1476 1476 1476 1475 1475 1474 1474 1473 1472 1471 1470 1468 1467 1465 1463 1461 1459 1458 1457 1456 1454 1453 1452 1451 1449 1448
1468 1469 1470 1471 1471 1472 1473 1474 1474 1475 1475 1476 1476 1477 1477 1477 1477 1477 1477 1476 1476 1475 1474 1473 1472 1471 1470 1468 1467 1465 1463 1461 1459 1457 1455 1454 1452 1451 1450 1449 1447 1446 1444
1467 1468 1469 1470 1471 1472 1473 1474 1475 1475 1476 1476 1477 1477 1478 1478 1478 1478 1477 1477 1476 1475 1475 1474 1472 1471 1470 1468 1466 1464 1462 1459 1457 1455 1453 1452 1451 1449 1448 1447 1445 1443 1442